| time (UTC) | temp F | wind direction | speed MPH | gust MPH | rain 1hr in | rain 24hr in | rain mn in | humidity % | barometer mb |
| 20260901170035 | 67 | 29 | 1.0 | 3.0 | 0.00 | 0.00 | 0.00 | 57 | 1017.0 |
| 20260901165037 | 66 | 235 | 1.0 | 3.0 | 0.00 | 0.00 | 0.00 | 58 | 1017.0 |
| 20260901164017 | 66 | 207 | 1.0 | 4.0 | 0.00 | 0.00 | 0.00 | 58 | 1017.0 |
| 20260901163016 | 65 | 159 | 1.0 | 4.0 | 0.00 | 0.00 | 0.00 | 58 | 1017.0 |
| 20260901162015 | 65 | 247 | 1.0 | 2.0 | 0.00 | 0.00 | 0.00 | 59 | 1017.0 |
| 20260901161017 | 65 | 2 | 1.0 | 3.0 | 0.00 | 0.00 | 0.00 | 60 | 1017.0 |
| 20260901160016 | 65 | 301 | 1.0 | 3.0 | 0.00 | 0.00 | 0.00 | 60 | 1017.0 |
| 20260901155015 | 65 | 279 | 1.0 | 2.0 | 0.00 | 0.00 | 0.00 | 61 | 1016.9 |
| 20260901154017 | 64 | 1 | 1.0 | 2.0 | 0.00 | 0.00 | 0.00 | 61 | 1016.7 |
| 20260901153016 | 64 | 189 | 1.0 | 5.0 | 0.00 | 0.00 | 0.00 | 62 | 1016.7 |
| 20260901152015 | 64 | 315 | 1.0 | 2.0 | 0.00 | 0.00 | 0.00 | 63 | 1016.5 |
| 20260901151017 | 64 | 10 | 2.0 | 4.0 | 0.00 | 0.00 | 0.00 | 63 | 1016.5 |
| 20260901150016 | 63 | 201 | 1.0 | 4.0 | 0.00 | 0.00 | 0.00 | 64 | 1016.5 |
| 20260901145016 | 63 | 188 | 0.0 | 2.0 | 0.00 | 0.00 | 0.00 | 64 | 1016.3 |
| 20260901144041 | 63 | 225 | 0.0 | 2.0 | 0.00 | 0.00 | 0.00 | 64 | 1016.2 |
| 20260901143017 | 63 | 359 | 1.0 | 2.0 | 0.00 | 0.00 | 0.00 | 65 | 1016.1 |
| 20260901142019 | 63 | 192 | 1.0 | 4.0 | 0.00 | 0.00 | 0.00 | 65 | 1015.9 |
| 20260901141015 | 62 | 219 | 0.0 | 1.0 | 0.00 | 0.00 | 0.00 | 66 | 1015.8 |
| 20260901140017 | 62 | 193 | 0.0 | 2.0 | 0.00 | 0.00 | 0.00 | 66 | 1015.7 |
| 20260901135016 | 62 | 188 | 1.0 | 4.0 | 0.00 | 0.00 | 0.00 | 66 | 1015.6 |
| 20260901134035 | 62 | 5 | 1.0 | 2.0 | 0.00 | 0.00 | 0.00 | 66 | 1015.5 |
| 20260901133017 | 62 | 5 | 1.0 | 2.0 | 0.00 | 0.00 | 0.00 | 66 | 1015.4 |
| 20260901132016 | 62 | 199 | 1.0 | 2.0 | 0.00 | 0.00 | 0.00 | 66 | 1015.4 |
| 20260901131015 | 62 | 6 | 1.0 | 2.0 | 0.00 | 0.00 | 0.00 | 67 | 1015.3 |
| 20260901130017 | 62 | 5 | 1.0 | 1.0 | 0.00 | 0.00 | 0.00 | 67 | 1015.2 |
| 20260901125016 | 62 | 4 | 1.0 | 3.0 | 0.00 | 0.00 | 0.00 | 67 | 1015.2 |
| 20260901124016 | 62 | 180 | 1.0 | 4.0 | 0.00 | 0.00 | 0.00 | 68 | 1015.2 |
| 20260901123015 | 62 | 185 | 0.0 | 1.0 | 0.00 | 0.00 | 0.00 | 68 | 1015.2 |
| 20260901122017 | 62 | 185 | 0.0 | 2.0 | 0.00 | 0.00 | 0.00 | 68 | 1015.2 |
| 20260901121016 | 62 | 180 | 0.0 | 2.0 | 0.00 | 0.00 | 0.00 | 69 | 1015.1 |
| 20260901120055 | 62 | 292 | 0.0 | 1.0 | 0.00 | 0.00 | 0.00 | 69 | 1015.1 |
| 20260901115017 | 62 | 186 | 0.0 | 1.0 | 0.00 | 0.00 | 0.00 | 69 | 1015.1 |
| 20260901114039 | 62 | 17 | 1.0 | 2.0 | 0.00 | 0.00 | 0.00 | 69 | 1015.2 |
| 20260901113015 | 62 | 123 | 1.0 | 4.0 | 0.00 | 0.00 | 0.00 | 70 | 1015.3 |
| 20260901112020 | 61 | 68 | 1.0 | 4.0 | 0.00 | 0.00 | 0.00 | 70 | 1015.4 |
| 20260901111016 | 61 | 190 | 1.0 | 4.0 | 0.00 | 0.00 | 0.00 | 71 | 1015.5 |
| 20260901110015 | 61 | 5 | 1.0 | 1.0 | 0.00 | 0.00 | 0.00 | 73 | 1015.5 |
| 20260901105018 | 61 | 5 | 1.0 | 1.0 | 0.00 | 0.00 | 0.00 | 73 | 1015.4 |
| 20260901104017 | 60 | 352 | 1.0 | 1.0 | 0.00 | 0.00 | 0.00 | 74 | 1015.4 |
| 20260901103018 | 60 | 315 | 0.0 | 1.0 | 0.00 | 0.00 | 0.00 | 74 | 1015.2 |
| 20260901102015 | 60 | 269 | 0.0 | 1.0 | 0.00 | 0.00 | 0.00 | 76 | 1015.2 |
| 20260901101017 | 59 | 269 | 0.0 | 1.0 | 0.00 | 0.00 | 0.00 | 77 | 1015.1 |
| 20260901100016 | 59 | 0.0 | 0.0 | 0.00 | 0.00 | 0.00 | 78 | 1015.1 | |
| 20260901095015 | 59 | 0.0 | 0.0 | 0.00 | 0.00 | 0.00 | 79 | 1015.1 | |
| 20260901094017 | 58 | 267 | 0.0 | 1.0 | 0.00 | 0.00 | 0.00 | 79 | 1015.0 |
| 20260901093016 | 58 | 315 | 0.0 | 1.0 | 0.00 | 0.00 | 0.00 | 80 | 1015.0 |
| 20260901092015 | 58 | 0.0 | 0.0 | 0.00 | 0.00 | 0.00 | 80 | 1015.1 | |
| 20260901091017 | 57 | 304 | 0.0 | 2.0 | 0.00 | 0.00 | 0.00 | 81 | 1015.1 |
| 20260901090016 | 57 | 0.0 | 0.0 | 0.00 | 0.00 | 0.00 | 82 | 1015.0 | |
| 20260901085015 | 56 | 0.0 | 0.0 | 0.00 | 0.00 | 0.00 | 82 | 1015.1 | |
| 20260901084016 | 56 | 0.0 | 0.0 | 0.00 | 0.00 | 0.00 | 81 | 1015.0 | |
| 20260901083017 | 56 | 0.0 | 0.0 | 0.00 | 0.00 | 0.00 | 81 | 1015.0 | |
| 20260901082016 | 57 | 0.0 | 0.0 | 0.00 | 0.00 | 0.00 | 81 | 1015.0 | |
| 20260901081015 | 57 | 0.0 | 0.0 | 0.00 | 0.00 | 0.00 | 81 | 1015.1 | |
| 20260901080037 | 57 | 5 | 1.0 | 1.0 | 0.00 | 0.00 | 0.00 | 80 | 1015.1 |
| 20260901075039 | 57 | 0.0 | 0.0 | 0.00 | 0.00 | 0.00 | 80 | 1015.0 | |
| 20260901074104 | 57 | 0.0 | 0.0 | 0.00 | 0.00 | 0.00 | 80 | 1015.1 | |
| 20260901073020 | 58 | 0.0 | 0.0 | 0.00 | 0.00 | 0.00 | 79 | 1015.2 | |
| 20260901072036 | 58 | 0.0 | 0.0 | 0.00 | 0.00 | 0.00 | 79 | 1015.2 | |
| 20260901071015 | 58 | 5 | 1.0 | 1.0 | 0.00 | 0.00 | 0.00 | 79 | 1015.2 |
| 20260901070017 | 58 | 0.0 | 0.0 | 0.00 | 0.00 | 0.00 | 78 | 1015.1 | |
| 20260901065016 | 59 | 2 | 1.0 | 1.0 | 0.00 | 0.00 | 0.00 | 78 | 1015.2 |
| 20260901064041 | 59 | 0.0 | 0.0 | 0.00 | 0.00 | 0.00 | 77 | 1015.2 | |
| 20260901063015 | 59 | 0.0 | 0.0 | 0.00 | 0.00 | 0.00 | 76 | 1015.3 | |
| 20260901062037 | 60 | 0.0 | 0.0 | 0.00 | 0.00 | 0.00 | 76 | 1015.3 | |
| 20260901061036 | 60 | 5 | 0.0 | 1.0 | 0.00 | 0.00 | 0.00 | 75 | 1015.3 |
| 20260901060015 | 60 | 339 | 1.0 | 2.0 | 0.00 | 0.00 | 0.00 | 75 | 1015.4 |
| 20260901055017 | 60 | 259 | 1.0 | 3.0 | 0.00 | 0.00 | 0.00 | 76 | 1015.5 |
| 20260901054016 | 60 | 272 | 0.0 | 1.0 | 0.00 | 0.00 | 0.00 | 76 | 1015.4 |
| 20260901053015 | 59 | 354 | 0.0 | 2.0 | 0.00 | 0.00 | 0.00 | 77 | 1015.5 |
| 20260901052017 | 59 | 0.0 | 0.0 | 0.00 | 0.00 | 0.00 | 76 | 1015.3 | |
| 20260901051016 | 60 | 5 | 0.0 | 1.0 | 0.00 | 0.00 | 0.00 | 75 | 1015.2 |
| 20260901050015 | 60 | 351 | 0.0 | 1.0 | 0.00 | 0.00 | 0.00 | 75 | 1015.1 |
| 20260901045015 | 60 | 352 | 1.0 | 2.0 | 0.00 | 0.00 | 0.00 | 74 | 1015.0 |
| 20260901044037 | 61 | 338 | 0.0 | 2.0 | 0.00 | 0.00 | 0.00 | 73 | 1015.0 |
| 20260901043016 | 61 | 318 | 0.0 | 1.0 | 0.00 | 0.00 | 0.00 | 73 | 1014.9 |
| 20260901042035 | 61 | 359 | 1.0 | 2.0 | 0.00 | 0.00 | 0.00 | 73 | 1014.9 |
| 20260901041037 | 62 | 345 | 1.0 | 3.0 | 0.00 | 0.00 | 0.00 | 73 | 1014.8 |
| 20260901040019 | 62 | 2 | 1.0 | 3.0 | 0.00 | 0.00 | 0.00 | 72 | 1014.8 |
| 20260901035035 | 62 | 343 | 1.0 | 4.0 | 0.00 | 0.00 | 0.00 | 72 | 1014.7 |
| 20260901034037 | 62 | 332 | 1.0 | 4.0 | 0.00 | 0.00 | 0.00 | 71 | 1014.5 |
| 20260901033016 | 63 | 246 | 1.0 | 2.0 | 0.00 | 0.00 | 0.00 | 71 | 1014.4 |
| 20260901032036 | 63 | 332 | 2.0 | 5.0 | 0.00 | 0.00 | 0.00 | 71 | 1014.3 |
| 20260901031034 | 63 | 353 | 2.0 | 5.0 | 0.00 | 0.00 | 0.00 | 70 | 1014.2 |
| 20260901030017 | 64 | 234 | 1.0 | 4.0 | 0.00 | 0.00 | 0.00 | 69 | 1014.0 |
| 20260901025019 | 64 | 326 | 1.0 | 8.0 | 0.00 | 0.00 | 0.00 | 68 | 1014.0 |
| 20260901024035 | 65 | 347 | 1.0 | 3.0 | 0.00 | 0.00 | 0.00 | 68 | 1014.0 |
| 20260901023017 | 65 | 295 | 2.0 | 5.0 | 0.00 | 0.00 | 0.00 | 67 | 1014.0 |
| 20260901022016 | 65 | 222 | 1.0 | 4.0 | 0.00 | 0.00 | 0.00 | 67 | 1013.9 |
| 20260901021018 | 66 | 238 | 2.0 | 5.0 | 0.00 | 0.00 | 0.00 | 66 | 1013.8 |
| 20260901020017 | 66 | 265 | 2.0 | 7.0 | 0.00 | 0.00 | 0.00 | 66 | 1013.9 |
| 20260901015056 | 66 | 228 | 1.0 | 6.0 | 0.00 | 0.00 | 0.00 | 65 | 1013.8 |
| 20260901014015 | 67 | 267 | 2.0 | 8.0 | 0.00 | 0.00 | 0.00 | 65 | 1013.8 |
| 20260901013017 | 68 | 258 | 2.0 | 8.0 | 0.00 | 0.00 | 0.00 | 63 | 1013.8 |
| 20260901012036 | 68 | 245 | 2.0 | 6.0 | 0.00 | 0.00 | 0.00 | 63 | 1013.9 |
| 20260901011016 | 68 | 243 | 2.0 | 4.0 | 0.00 | 0.00 | 0.00 | 63 | 1013.9 |
| 20260901010015 | 67 | 299 | 3.0 | 8.0 | 0.00 | 0.00 | 0.00 | 64 | 1013.9 |
| 20260901005017 | 68 | 290 | 3.0 | 10.0 | 0.00 | 0.00 | 0.00 | 64 | 1013.7 |
| 20260901004016 | 68 | 332 | 3.0 | 7.0 | 0.00 | 0.00 | 0.00 | 62 | 1013.6 |
| 20260901003015 | 68 | 290 | 4.0 | 10.0 | 0.00 | 0.00 | 0.00 | 61 | 1013.6 |
| 20260901002017 | 69 | 308 | 4.0 | 10.0 | 0.00 | 0.00 | 0.00 | 60 | 1013.6 |
| 20260901001016 | 69 | 305 | 5.0 | 13.0 | 0.00 | 0.00 | 0.00 | 60 | 1013.6 |
| 20260901000015 | 69 | 299 | 3.0 | 7.0 | 0.00 | 0.00 | 0.00 | 59 | 1013.7 |
| 20260831235017 | 70 | 315 | 5.0 | 10.0 | 0.00 | 0.00 | 0.00 | 58 | 1013.6 |
| 20260831234017 | 71 | 295 | 3.0 | 9.0 | 0.00 | 0.00 | 0.00 | 58 | 1013.6 |
| 20260831233016 | 70 | 304 | 3.0 | 11.0 | 0.00 | 0.00 | 0.00 | 58 | 1013.7 |
| 20260831232015 | 71 | 308 | 3.0 | 8.0 | 0.00 | 0.00 | 0.00 | 58 | 1013.7 |
| 20260831231017 | 71 | 323 | 4.0 | 10.0 | 0.00 | 0.00 | 0.00 | 58 | 1013.7 |
| 20260831230016 | 71 | 339 | 4.0 | 13.0 | 0.00 | 0.00 | 0.00 | 58 | 1013.8 |
| 20260831225035 | 71 | 310 | 3.0 | 8.0 | 0.00 | 0.00 | 0.00 | 58 | 1013.8 |
| 20260831224017 | 71 | 311 | 2.0 | 8.0 | 0.00 | 0.00 | 0.00 | 59 | 1013.9 |
| 20260831223036 | 71 | 305 | 4.0 | 8.0 | 0.00 | 0.00 | 0.00 | 59 | 1014.0 |
| 20260831222015 | 71 | 315 | 4.0 | 10.0 | 0.00 | 0.00 | 0.00 | 59 | 1014.1 |
| 20260831220016 | 72 | 305 | 3.0 | 10.0 | 0.00 | 0.00 | 0.00 | 58 | 1014.3 |
| 20260831215016 | 73 | 298 | 3.0 | 9.0 | 0.00 | 0.00 | 0.00 | 57 | 1014.4 |
| 20260831214018 | 73 | 240 | 2.0 | 7.0 | 0.00 | 0.00 | 0.00 | 56 | 1014.5 |
| 20260831213036 | 73 | 236 | 2.0 | 5.0 | 0.00 | 0.00 | 0.00 | 56 | 1014.6 |
| 20260831212016 | 73 | 277 | 2.0 | 11.0 | 0.00 | 0.00 | 0.00 | 55 | 1014.8 |
| 20260831211015 | 73 | 248 | 2.0 | 5.0 | 0.00 | 0.00 | 0.00 | 56 | 1014.8 |
| 20260831210017 | 72 | 221 | 3.0 | 9.0 | 0.00 | 0.00 | 0.00 | 56 | 1014.9 |
| 20260831205016 | 73 | 248 | 2.0 | 6.0 | 0.00 | 0.00 | 0.00 | 56 | 1015.0 |
| 20260831204015 | 72 | 208 | 2.0 | 7.0 | 0.00 | 0.00 | 0.00 | 56 | 1015.0 |
| 20260831203037 | 72 | 247 | 3.0 | 10.0 | 0.00 | 0.00 | 0.00 | 58 | 1015.1 |
| 20260831202016 | 71 | 243 | 2.0 | 10.0 | 0.00 | 0.00 | 0.00 | 59 | 1015.1 |
| 20260831201015 | 71 | 239 | 3.0 | 7.0 | 0.00 | 0.00 | 0.00 | 61 | 1015.1 |
| 20260831200017 | 71 | 283 | 3.0 | 8.0 | 0.00 | 0.00 | 0.00 | 60 | 1015.1 |
| 20260831195016 | 70 | 256 | 2.0 | 6.0 | 0.00 | 0.00 | 0.00 | 62 | 1015.1 |
| 20260831194016 | 69 | 220 | 2.0 | 5.0 | 0.00 | 0.00 | 0.00 | 63 | 1015.3 |
| 20260831193015 | 68 | 224 | 1.0 | 4.0 | 0.00 | 0.00 | 0.00 | 66 | 1015.4 |
| 20260831192017 | 67 | 175 | 1.0 | 7.0 | 0.00 | 0.00 | 0.00 | 66 | 1015.5 |
| 20260831191016 | 67 | 214 | 1.0 | 4.0 | 0.00 | 0.00 | 0.00 | 67 | 1015.5 |
| 20260831190015 | 66 | 309 | 1.0 | 3.0 | 0.00 | 0.00 | 0.00 | 67 | 1015.6 |
| 20260831185017 | 66 | 23 | 2.0 | 4.0 | 0.00 | 0.00 | 0.00 | 67 | 1015.6 |
| 20260831184016 | 66 | 11 | 1.0 | 3.0 | 0.00 | 0.00 | 0.00 | 67 | 1015.7 |
| 20260831183015 | 65 | 10 | 1.0 | 2.0 | 0.00 | 0.00 | 0.00 | 68 | 1015.7 |
| 20260831182017 | 65 | 245 | 2.0 | 4.0 | 0.00 | 0.00 | 0.00 | 69 | 1015.7 |
| 20260831181016 | 65 | 192 | 2.0 | 6.0 | 0.00 | 0.00 | 0.00 | 70 | 1015.7 |
| 20260831180016 | 64 | 197 | 1.0 | 3.0 | 0.00 | 0.00 | 0.00 | 71 | 1015.7 |
| 20260831175015 | 64 | 240 | 1.0 | 4.0 | 0.00 | 0.00 | 0.00 | 72 | 1015.7 |
| 20260831174017 | 64 | 199 | 2.0 | 7.0 | 0.00 | 0.00 | 0.00 | 72 | 1015.8 |
| 20260831173016 | 63 | 202 | 2.0 | 4.0 | 0.00 | 0.00 | 0.00 | 72 | 1015.8 |
| 20260831172015 | 63 | 222 | 1.0 | 5.0 | 0.00 | 0.00 | 0.00 | 72 | 1015.7 |
| 20260831171017 | 63 | 3 | 1.0 | 4.0 | 0.00 | 0.00 | 0.00 | 73 | 1015.7 |